APSTAR-6C (43450 NORAD) Tracking and Keplerian Element Data

This shows tracking and keplerian element data for the satellite.

Feedback or suggestion? Click here.




ElementValue
Catalog43450
NameAPSTAR-6C
Epoch Orbit2239
Epoch Day159.01021788
Epoch Year2024
RAAN303.7798
Inclination0.0215
Eccentricity6.02E-05
Argument of Perigee290.3405
Mean Anonmoly159.4343
Mean Motion1.00268533
Decay Rate-3.18E-06
L11 43450U 18041A 24159.01021788 -.00000318 00000+0 00000+0 0 9999
L22 43450 0.0215 303.7798 0000602 290.3405 159.4343 1.00268533 22397



Live tracking and technical data element details for APSTAR-6C (NORAD 43450). APSTAR-6C can be tracked NOW for your location showing map with azimuth and elevation plus other details from your city location.







IsCatalogInMostPopularTable: catalog: 43450, numindb: 618
Update: records affected: 1



GetName: 43450 APSTAR-6C

Hit Count: updated at: Tue, 18 Jun 2024 00:15:49 GMT